Voltar ao catálogo

STARLINK-37956

AtivoComunicaçõesSSO
NORAD 69711·PAYLOAD·🇺🇸 United States

Lançado Jun 28, 2026 de Vandenberg Space Force Base

Loading…

Próximas Passagens (próximas 24 horas)

TLE

AtualizadoSource: CelesTrak SupGP

Época: Sep 15, 2026, 03:10 UTC

1 69711C 26147H   26258.13243056 -.00025206  00000+0 -78242-3 0  2581
2 69711  97.2838 294.5382 0001302  87.5737 114.8451 15.33453858    19

Acompanhe STARLINK-37956 em tempo real com AllMySat

Download on the App Store